CZ-6A DEB, 61470

Orbit data source: Space-Track

CZ-6A DEB, 61470 is space debris in LEO originally from a launch on Tue, 06 Aug 2024 UTC launched from the Taiyaun Space Center, China (TSC). Debris objects in space refer to the collection of defunct objects orbiting the Earth. Examples of debris include non-operational satellites, rocket bodies, and fragments generated from explosions, collisions, or faulty payload assembly.

Loading next visibility...
CZ-6A DEB details
Identifier
61470, 2024-140AAC
Orbit
LEO
Last TLE update1 day ago
Origin
Flag of CNCNSA (CN / PRC)
ManufacturerSAST
MissionSpacecraft
Bus & MotorUnknown
MassUnknown
Launch date (UTC)
2024-08-06 (6 months ago)
Launch vehicleUnknown
Launch site
Taiyaun Space Center, China (TSC)
Object type
Payload
Rocket body
Debris
Shape & HBRUnknown
Radar Cross SectionSmall (<0.1 m²)

Expand to show TLE details & history

TLE from 1 day ago
0 CZ-6A DEB
1 61470U 24140AAC 25034.90952591  .00245799  00000-0  15203-1 0  9991
2 61470  89.2659 335.1783 0102922  81.8377 279.4518 15.04425590 22699
Epoch: 2025-02-03T21:49Z
Definitive object data (Epoch: 2025-02-03T21:49:43.038Z)
Latitude-0.00011°
Longitude-126.57343°
Altitude545.442 km
Speed7.595 km/s
True Right ascension22h 20m 42s
True Declination0° 00' 00"
Sunlit
Object was in daylight at TLE epoch
Visualization TLE readout
Latitude-86.35501°
Longitude64.83525°
Altitude649.763 km
Speed7.493 km/s
Apparent Right ascension20h 45m 42s
Apparent Declination-67° 45' 09"
Sunlit
Object is in daylight
Visualization observer readout
Local Sidereal Time08:57:47
Azimuth177.556° S
Elevation-62.114°
Doppler factor1
Orbital elements
Apogee altitude621.406 km
Perigee altitude478.792 km
Semi-major axis6,928.236 km
Eccentricity0.0102922
Inclination89.2659°
RAAN335.1783°
Arg. of periapsis81.8377°
True anomaly278.28603°
Mean anomaly279.4518°
Eccentric anomaly278.86915°
Mean motion3.76365 °/min
BSTAR0.015203
Orbital period95.65 mins
Loading maneuver chart data...
Loading historical data...
Loading historical data...
Loading historical data...
Loading historical data...
Loading historical data...
Loading historical data...
Loading historical data...

CZ-6A DEB Visibility forecast

Observer location: undefined°, undefined

Span
Click to sort rows by Start time (UTC) header in descending order
Start Az.
Max El. time (UTC)
Max El. Az.
Max El.
End time (UTC)
End Az.
6 mins2025-02-05 07:54:32.183Z16.182° NNE2025-02-05 07:57:32.183Z100.074° ESE37.577°2025-02-05 08:00:32.183Z163.793° S
6 mins2025-02-05 20:14:32.183Z176.46° S2025-02-05 20:16:32.183Z172.299° S42.244°2025-02-05 20:20:32.183Z359.308° N
|